CZ-4B R/B (29507 NORAD) Tracking and Keplerian Element Data

This shows tracking and keplerian element data for the satellite.

Feedback or suggestion? Click here.




ElementValue
Catalog29507
NameCZ-4B R/B
Epoch Orbit99964
Epoch Day34.67447783
Epoch Year2025
RAAN75.6727
Inclination97.615
Eccentricity0.0036446
Argument of Perigee202.7791
Mean Anonmoly157.1824
Mean Motion15.11877468
Decay Rate7.298E-05
L11 29507U 06046C 25034.67447783 .00007298 00000+0 42354-3 0 9995
L22 29507 97.6150 75.6727 0036446 202.7791 157.1824 15.11877468999641



Live tracking and technical data element details for CZ-4B R/B (NORAD 29507). CZ-4B R/B can be tracked NOW for your location showing map with azimuth and elevation plus other details from your city location.







IsCatalogInMostPopularTable: catalog: 29507, numindb: 1329
Update: records affected: 1



GetName: 29507 CZ-4B R/B

Hit Count: updated at: Sat, 06 Dec 2025 12:18:58 GMT